When you browse on this site, cookies collect data to enhance your experience and personalize the content and advertising you see.
Visit our Privacy Policy to learn more. By continuing to use the site, you agree to this use of cookies and data.
  • In Netherlands
  • List of Countries
  • For 7 days
  • Water Temperature
  • Weather Map
  • Weather Widgets
  • user-avatar
    Login

    Hourly Weather Slepiska

    Today, 26 January, Sunday

    Time Temperature Precipitation Wind Pressure Humidity
    00:00 +2°C° 0 mm 2 mps 754 mmHg 83%
    01:00 +1°C° 0 mm 3 mps 754 mmHg 83%
    02:00 +2°C° 0 mm 2 mps 754 mmHg 82%
    03:00 +2°C° 0 mm 2 mps 754 mmHg 82%
    04:00 +2°C° 0 mm 2 mps 754 mmHg 81%
    05:00 +1°C° 0 mm 2 mps 754 mmHg 81%
    06:00 +1°C° 0 mm 2 mps 754 mmHg 80%
    07:00 +1°C° 0 mm 2 mps 754 mmHg 79%
    08:00 +1°C° 0 mm 2 mps 754 mmHg 77%
    09:00 +1°C° 0 mm 3 mps 754 mmHg 75%
    10:00 +1°C° 0 mm 3 mps 754 mmHg 73%
    11:00 +1°C° 0 mm 3 mps 754 mmHg 68%
    12:00 +2°C° 0 mm 3 mps 753 mmHg 64%
    13:00 +2°C° 0 mm 3 mps 753 mmHg 59%
    14:00 +2°C° 0 mm 3 mps 753 mmHg 60%
    15:00 +1°C° 0 mm 3 mps 753 mmHg 61%
    16:00 +1°C° 0 mm 3 mps 752 mmHg 61%
    17:00 +1°C° 0 mm 3 mps 752 mmHg 64%
    18:00 +2°C° 0 mm 2 mps 752 mmHg 66%
    19:00 +1°C° 0 mm 2 mps 752 mmHg 69%
    20:00 +1°C° 0 mm 2 mps 752 mmHg 70%
    21:00 +1°C° 0 mm 2 mps 752 mmHg 71%
    22:00 +1°C° 0 mm 2 mps 752 mmHg 73%
    23:00 +1°C° 0 mm 2 mps 751 mmHg 74%

    Tomorrow, 27 January, Monday

    Time Temperature Precipitation Wind Pressure Humidity
    00:00 -1°C° 0 mm 2 mps 751 mmHg 75%
    01:00 -1°C° 0 mm 2 mps 751 mmHg 76%
    02:00 -1°C° 0 mm 2 mps 751 mmHg 76%
    03:00 -1°C° 0 mm 2 mps 750 mmHg 77%
    04:00 -1°C° 0 mm 2 mps 750 mmHg 78%
    05:00 -1°C° 0 mm 2 mps 750 mmHg 79%
    06:00 +1°C° 0 mm 2 mps 750 mmHg 81%
    07:00 +1°C° 0 mm 2 mps 749 mmHg 82%
    08:00 +1°C° 0.1 mm 2 mps 749 mmHg 85%
    09:00 +1°C° 0.1 mm 3 mps 749 mmHg 87%
    10:00 +2°C° 0.1 mm 3 mps 749 mmHg 90%
    11:00 +2°C° 0.1 mm 3 mps 749 mmHg 90%
    12:00 +2°C° 0.1 mm 3 mps 749 mmHg 90%
    13:00 +2°C° 0.1 mm 3 mps 748 mmHg 90%
    14:00 +2°C° 0 mm 3 mps 748 mmHg 90%
    15:00 +2°C° 0 mm 3 mps 748 mmHg 89%
    16:00 +2°C° 0 mm 3 mps 747 mmHg 89%
    17:00 +2°C° 0 mm 3 mps 747 mmHg 90%
    18:00 +2°C° 0 mm 3 mps 746 mmHg 91%
    19:00 +1°C° 0 mm 3 mps 746 mmHg 93%
    20:00 +1°C° 0 mm 3 mps 746 mmHg 92%
    21:00 +1°C° 0 mm 3 mps 746 mmHg 91%
    22:00 +1°C° 0 mm 4 mps 745 mmHg 91%
    23:00 +1°C° 0 mm 4 mps 745 mmHg 90%

    Day after tomorrow, 28 January, Tuesday

    Time Temperature Precipitation Wind Pressure Humidity
    00:00 +1°C° 0 mm 4 mps 744 mmHg 90%
    01:00 +1°C° 0 mm 4 mps 743 mmHg 89%
    02:00 +1°C° 0.1 mm 4 mps 742 mmHg 89%
    03:00 +1°C° 0.1 mm 4 mps 742 mmHg 90%
    04:00 0°C° 0.1 mm 4 mps 741 mmHg 90%
    05:00 +1°C° 0.3 mm 4 mps 741 mmHg 90%
    06:00 +1°C° 0.3 mm 4 mps 740 mmHg 89%
    07:00 +1°C° 0.3 mm 5 mps 740 mmHg 89%
    08:00 +2°C° 0.1 mm 5 mps 739 mmHg 87%
    09:00 +2°C° 0.1 mm 5 mps 739 mmHg 85%
    10:00 +2°C° 0.1 mm 5 mps 739 mmHg 82%
    11:00 +2°C° 0.2 mm 5 mps 738 mmHg 82%
    12:00 +2°C° 0.2 mm 5 mps 738 mmHg 82%
    13:00 +3°C° 0.2 mm 5 mps 737 mmHg 82%
    14:00 +3°C° 0 mm 5 mps 737 mmHg 81%
    15:00 +4°C° 0 mm 4 mps 736 mmHg 80%
    16:00 +4°C° 0 mm 4 mps 736 mmHg 79%
    17:00 +3°C° 0 mm 4 mps 736 mmHg 81%
    18:00 +3°C° 0 mm 4 mps 736 mmHg 83%
    19:00 +3°C° 0 mm 3 mps 735 mmHg 85%
    20:00 +3°C° 0 mm 3 mps 735 mmHg 86%
    21:00 +2°C° 0 mm 3 mps 735 mmHg 86%
    22:00 +2°C° 0 mm 3 mps 735 mmHg 87%
    23:00 +1°C° 0 mm 4 mps 735 mmHg 88%

    29 January, Wednesday

    Time Temperature Precipitation Wind Pressure Humidity
    00:00 +1°C° 0 mm 4 mps 734 mmHg 89%
    01:00 +1°C° 0 mm 5 mps 734 mmHg 90%
    02:00 +1°C° 0 mm 5 mps 734 mmHg 85%
    03:00 0°C° 0 mm 5 mps 734 mmHg 80%
    04:00 0°C° 0 mm 5 mps 734 mmHg 75%
    05:00 0°C° 0 mm 5 mps 735 mmHg 77%
    06:00 -1°C° 0 mm 4 mps 735 mmHg 79%
    07:00 -2°C° 0 mm 4 mps 735 mmHg 80%
    08:00 -1°C° 0 mm 4 mps 735 mmHg 79%
    09:00 -1°C° 0 mm 5 mps 735 mmHg 77%
    10:00 0°C° 0 mm 5 mps 736 mmHg 76%
    11:00 0°C° 0.1 mm 5 mps 736 mmHg 81%
    12:00 0°C° 0.1 mm 5 mps 736 mmHg 87%
    13:00 -1°C° 0.1 mm 5 mps 736 mmHg 92%
    14:00 -2°C° 0.2 mm 6 mps 736 mmHg 93%
    15:00 -2°C° 0.2 mm 6 mps 736 mmHg 94%
    16:00 -2°C° 0.2 mm 6 mps 737 mmHg 94%
    17:00 -1°C° 0.5 mm 6 mps 737 mmHg 95%
    18:00 -1°C° 0.5 mm 6 mps 737 mmHg 95%
    19:00 -1°C° 0.5 mm 6 mps 737 mmHg 95%
    20:00 -1°C° 0.4 mm 6 mps 737 mmHg 94%
    21:00 0°C° 0.4 mm 5 mps 738 mmHg 92%
    22:00 0°C° 0.4 mm 5 mps 738 mmHg 91%
    23:00 0°C° 0 mm 5 mps 738 mmHg 88%

    30 January, Thursday

    Time Temperature Precipitation Wind Pressure Humidity
    00:00 +1°C° 0 mm 5 mps 739 mmHg 85%
    01:00 +1°C° 0 mm 6 mps 739 mmHg 82%
    02:00 +1°C° 0 mm 6 mps 740 mmHg 81%
    03:00 +1°C° 0 mm 6 mps 740 mmHg 80%
    04:00 +1°C° 0 mm 6 mps 740 mmHg 80%
    05:00 +1°C° 0 mm 6 mps 741 mmHg 80%
    06:00 +1°C° 0 mm 6 mps 741 mmHg 80%
    07:00 +1°C° 0 mm 6 mps 742 mmHg 80%
    08:00 +1°C° 0 mm 6 mps 742 mmHg 79%
    09:00 +1°C° 0 mm 6 mps 743 mmHg 78%
    10:00 +2°C° 0 mm 6 mps 743 mmHg 77%
    11:00 +2°C° 0 mm 6 mps 744 mmHg 75%
    12:00 +2°C° 0 mm 6 mps 744 mmHg 73%
    13:00 +3°C° 0 mm 6 mps 744 mmHg 71%
    14:00 +3°C° 0 mm 6 mps 745 mmHg 71%
    15:00 +2°C° 0 mm 6 mps 745 mmHg 72%
    16:00 +2°C° 0 mm 5 mps 746 mmHg 72%
    17:00 +2°C° 0 mm 5 mps 746 mmHg 74%
    18:00 +2°C° 0 mm 5 mps 747 mmHg 76%
    19:00 +2°C° 0 mm 5 mps 747 mmHg 77%
    20:00 +3°C° 0 mm 4 mps 747 mmHg 79%
    21:00 +3°C° 0 mm 4 mps 747 mmHg 81%
    22:00 +3°C° 0 mm 4 mps 747 mmHg 83%
    23:00 +1°C° 0 mm 4 mps 747 mmHg 86%

    31 January, Friday

    Time Temperature Precipitation Wind Pressure Humidity
    00:00 +1°C° 0 mm 4 mps 748 mmHg 89%
    01:00 +1°C° 0 mm 4 mps 748 mmHg 92%
    02:00 +1°C° 0.1 mm 4 mps 748 mmHg 90%
    03:00 +1°C° 0.1 mm 5 mps 748 mmHg 88%
    04:00 +2°C° 0.1 mm 5 mps 748 mmHg 86%
    05:00 +1°C° 0 mm 5 mps 748 mmHg 87%
    06:00 +1°C° 0 mm 4 mps 748 mmHg 87%
    07:00 +1°C° 0 mm 4 mps 748 mmHg 87%
    08:00 +1°C° 0 mm 4 mps 749 mmHg 87%
    09:00 +1°C° 0 mm 4 mps 749 mmHg 86%
    10:00 +2°C° 0 mm 3 mps 749 mmHg 85%
    11:00 +2°C° 0 mm 3 mps 749 mmHg 82%
    12:00 +3°C° 0 mm 3 mps 749 mmHg 78%
    13:00 +3°C° 0 mm 3 mps 749 mmHg 75%
    14:00 +3°C° 0 mm 3 mps 749 mmHg 76%
    15:00 +4°C° 0 mm 2 mps 749 mmHg 76%
    16:00 +3°C° 0 mm 2 mps 749 mmHg 77%
    17:00 +3°C° 0 mm 2 mps 749 mmHg 79%
    18:00 +2°C° 0 mm 2 mps 749 mmHg 81%
    19:00 +2°C° 0 mm 2 mps 749 mmHg 83%
    20:00 +1°C° 0 mm 2 mps 749 mmHg 83%
    21:00 +1°C° 0 mm 2 mps 749 mmHg 83%
    22:00 +1°C° 0 mm 2 mps 749 mmHg 82%
    23:00 +1°C° 0 mm 2 mps 749 mmHg 83%
    Show more